Location: Nordegg
(52.4712°N, 116.0743°W)
Time: 07:26:20
(UTC+00:00)

Envisat - Pass Details

Date: 06 December 2021
Orbit: 764 x 766 km, 98.2° (Epoch: 25 January)

Event Time Altitude Azimuth Distance (km) Brightness Sun altitude
Rises 12:36:04 0° 17° (NNE) 3,248 6.4 -26.6°
Reaches altitude 10° 12:38:26 10° 21° (NNE) 2,317 5.7 -26.3°
Maximum altitude 12:43:29 58° 101° (E) 893 3.5 -25.5°
Drops below altitude 10° 12:48:28 10° 180° (S) 2,298 5.5 -24.8°
Sets 12:50:48 0° 185° (S) 3,220 6.3 -24.4°
